Terminal Aerodrome Forecast
Issued by NWS Cheyenne, WY

Home | Current Version | Previous Version | Text Only | Print | Product List | Glossary On
Versions: 1 2 3 4 5 6 7 8 9 10 11 12 13 14 15 16 17 18 19 20 21 22 23 24 25 26 27 28 29 30 31 32 33 34
000
FTUS45 KCYS 272320
TAFCYS
TAF
KCYS 272320Z 2800/2824 29026G35KT P6SM SCT200
     FM280200 28018G25KT P6SM SCT250
     FM281900 26023G37KT P6SM FEW250=

USA.gov is the U.S. government's official web portal to all federal, state and local government web resources and services.